Lapse_Rate
6.7 6.7 6.6 6.5 6.3 6.2 6.0 5.9 5.8 6.0 5.6 5.8 6.0 6.8 7.5 7.2 7.1 7.3 7.4 7.6 7.5 7.1 7.0 6.8 6.5 6.3 6.1 6.0 5.9 5.6 5.6 5.5 5.5 5.6 5.7 5.9 5.8 6.0 6.1 6.1 6.3 6.3 6.2 6.2
6.8 6.9 6.7 6.5 6.3 6.1 5.9 5.8 6.0 5.9 5.9 5.5 6.1 6.6 7.6 7.7 7.3 7.3 7.2 7.3 7.5 7.3 7.1 6.9 6.4 6.2 6.1 6.0 5.8 5.7 5.7 5.6 5.6 5.8 5.8 5.9 6.0 6.2 6.3 6.3 6.3 6.2 6.1 6.1
6.8 6.7 6.7 6.6 6.5 6.2 6.2 6.0 6.0 5.6 5.6 5.9 5.9 5.8 7.3 7.5 7.4 7.3 7.2 7.2 7.3 7.3 7.0 6.8 6.4 6.1 6.2 6.0 5.9 5.7 5.6 5.7 5.8 5.9 5.9 6.0 6.3 6.4 6.4 6.4 6.4 6.3 6.2 6.2
6.7 6.8 6.6 6.6 6.5 6.1 6.3 6.3 5.9 5.6 5.2 4.8 5.7 4.3 6.4 7.1 7.6 7.6 7.1 7.0 7.0 7.1 6.8 6.6 6.5 6.3 6.2 6.1 6.0 5.7 5.6 5.8 6.0 6.0 6.0 6.2 6.4 6.5 6.4 6.4 6.3 6.3 6.1 6.1
6.7 6.6 6.6 6.6 6.5 6.4 6.3 6.4 6.0 5.8 5.4 4.5 5.8 4.7 6.5 6.9 7.2 7.4 7.1 6.7 6.6 6.7 6.7 6.6 6.5 6.4 6.3 6.2 5.9 5.8 6.0 6.1 6.1 6.1 6.2 6.2 6.4 6.3 6.3 6.1 6.1 6.1 6.0 6.0
6.7 6.5 6.5 6.6 6.5 6.5 6.4 6.4 6.1 5.6 5.1 3.7 5.8 5.4 5.8 7.0 6.9 7.0 6.9 6.9 6.7 6.6 6.5 6.5 6.4 6.4 6.4 6.3 6.1 6.1 6.1 6.1 6.1 6.0 6.0 6.1 6.3 6.3 6.2 6.0 5.9 5.9 5.9 5.8
6.4 6.5 6.4 6.5 6.5 6.5 6.5 6.4 6.0 4.6 4.0 4.5 5.8 4.9 6.1 6.6 6.5 6.5 6.6 6.6 6.5 6.5 6.4 6.3 6.4 6.5 6.5 6.4 6.3 6.2 6.1 6.1 6.1 6.0 5.9 6.1 6.2 6.2 6.1 5.9 5.9 6.0 5.8 5.7
6.0 6.0 6.6 6.5 6.7 6.7 6.4 6.4 6.6 5.7 5.0 4.8 5.6 5.4 6.6 6.8 6.9 6.4 6.2 6.1 6.3 6.4 6.2 6.3 6.6 6.4 6.3 6.2 6.2 6.2 6.2 6.2 6.1 6.2 6.2 6.2 6.1 6.1 6.0 6.0 5.9 5.8 5.6 5.5
6.2 5.8 6.1 6.2 6.4 6.6 6.1 6.3 6.4 6.4 5.9 4.6 5.6 5.8 6.3 6.4 5.9 6.0 6.2 6.1 6.1 6.1 6.1 6.3 6.4 6.3 6.4 6.1 6.2 6.2 6.3 6.4 6.4 6.4 6.2 6.1 6.1 6.1 6.0 5.9 5.8 5.6 5.4 5.4
6.2 5.8 5.9 6.1 6.1 6.3 6.5 6.3 6.1 6.3 5.4 5.0 5.0 5.6 6.6 6.2 6.0 6.1 6.1 6.3 6.4 6.1 6.1 6.1 6.2 6.1 6.1 6.1 6.3 6.3 6.3 6.2 6.3 6.3 6.1 6.0 5.7 5.8 5.9 5.9 5.9 5.8 5.6 5.7
6.3 6.0 5.8 5.7 5.9 6.2 6.3 6.2 6.3 6.4 5.6 5.3 4.9 5.6 6.3 6.2 6.2 6.3 6.5 6.5 6.6 6.6 6.1 5.8 5.8 5.9 6.0 5.9 6.1 6.2 6.2 6.2 6.2 6.2 6.2 6.2 6.1 5.8 5.8 5.8 5.9 5.8 5.7 5.7
6.1 6.0 5.7 5.8 5.9 5.8 6.1 6.4 6.6 6.1 5.4 5.2 5.4 5.2 6.5 6.4 6.2 6.3 6.5 6.7 6.3 6.0 5.8 5.9 5.8 5.9 5.6 5.6 5.5 5.8 6.0 6.3 6.6 6.6 6.5 6.3 6.1 6.1 6.0 5.8 5.8 5.7 5.6 5.5
5.7 5.6 5.6 5.6 5.8 6.1 5.8 5.8 6.1 6.2 5.8 5.1 5.7 5.7 6.3 6.4 6.2 5.9 5.9 6.1 6.0 5.9 5.7 5.8 5.7 5.7 5.5 5.5 5.3 5.4 5.9 6.1 6.2 6.5 6.2 6.0 6.0 6.0 5.9 5.7 5.5 5.7 5.6 5.5
5.4 5.2 5.6 5.7 6.1 6.0 5.3 5.0 5.2 5.5 5.7 5.6 5.2 6.0 6.3 5.8 5.7 5.8 5.9 6.0 6.0 5.9 5.8 5.7 5.6 5.5 5.2 5.2 5.5 5.9 6.1 6.4 6.4 6.2 6.1 6.0 6.0 6.0 5.8 5.7 5.6 5.6 5.7 5.7
5.1 4.9 5.3 5.5 5.5 5.6 5.2 5.1 5.3 5.2 5.4 5.7 5.9 5.8 5.9 5.8 5.7 5.8 5.8 5.8 5.7 5.8 5.9 5.5 5.2 5.2 5.4 5.5 5.9 5.9 6.0 5.9 6.0 5.8 5.6 5.4 5.5 5.7 5.6 5.5 5.6 5.6 5.9 6.1
5.2 5.3 5.3 5.2 5.5 5.8 5.3 5.4 5.4 5.7 5.8 5.4 5.6 5.6 5.7 5.8 5.7 5.6 5.5 5.6 5.4 5.2 5.0 5.1 5.4 5.2 5.2 5.4 5.4 5.4 5.6 5.7 5.7 5.5 5.5 5.4 5.4 5.4 5.7 5.6 5.7 5.8 6.0 6.4
5.2 5.3 5.5 5.1 5.3 5.4 4.9 5.1 5.6 6.3 5.4 5.7 5.7 6.0 5.9 5.8 5.6 5.0 4.8 4.9 4.7 4.9 5.1 5.0 4.8 4.9 5.3 5.4 5.3 5.3 5.2 5.3 5.5 5.5 5.4 5.2 5.4 5.7 5.8 5.7 5.7 6.2 6.4 6.4
5.5 5.6 5.7 5.7 5.7 5.8 5.9 5.9 6.1 6.0 5.7 5.7 5.6 5.8 5.9 5.9 5.3 4.8 4.9 4.8 4.9 4.9 4.9 5.0 4.7 4.6 4.6 4.8 5.0 5.0 5.1 5.3 5.3 5.3 5.3 5.2 5.3 5.6 5.8 6.0 6.3 6.4 6.5 6.6
6.4 6.1 6.0 6.2 6.0 6.5 5.9 6.1 6.2 6.0 6.0 5.7 5.8 5.5 4.9 5.0 5.0 5.4 5.0 4.7 4.8 4.9 4.8 4.8 4.3 4.3 4.5 4.7 4.6 4.7 5.1 5.2 5.3 5.3 5.4 5.5 5.9 6.0 5.8 5.8 6.0 6.2 6.3 6.4
6.7 6.7 6.2 6.6 6.5 6.8 6.8 6.7 6.4 6.2 5.5 5.4 5.4 5.1 5.3 4.7 5.0 5.0 4.7 4.5 4.5 4.4 4.3 4.0 4.1 4.5 4.6 4.9 5.1 5.1 5.0 5.2 5.4 5.7 5.8 5.9 6.0 5.7 5.6 5.9 6.0 6.0 5.9 5.9
6.5 6.4 6.6 6.8 6.9 6.9 6.8 6.3 5.6 5.6 6.0 5.7 5.5 5.6 5.0 4.8 4.7 4.8 4.8 4.7 4.8 4.4 4.3 4.4 4.6 4.8 4.8 5.0 5.1 5.2 5.4 5.7 5.9 5.9 5.9 5.6 5.5 5.6 5.7 5.7 5.6 5.6 5.6 5.6
6.3 6.7 6.2 6.5 6.9 6.7 5.5 5.7 5.6 5.5 5.6 5.5 5.5 5.0 4.7 4.8 4.8 4.8 4.9 4.7 4.6 4.6 4.5 4.6 4.8 4.8 5.1 5.2 5.5 5.6 5.7 5.9 5.9 5.8 5.9 6.1 6.0 6.0 6.0 6.0 5.9 5.7 5.6 5.5
6.9 6.8 6.9 6.5 6.5 6.2 6.2 6.2 5.7 5.7 5.4 5.0 5.1 5.1 4.7 4.6 4.8 4.7 4.6 4.8 4.8 4.9 5.1 5.1 5.3 5.6 5.7 5.8 5.8 5.8 5.7 5.7 5.7 6.0 6.0 6.0 5.9 5.9 5.9 5.8 5.8 5.7 5.6 5.4
6.5 6.2 6.5 6.7 6.4 6.4 6.5 6.1 5.7 5.1 5.0 4.7 5.0 4.8 4.7 4.9 4.9 5.1 5.0 5.0 5.1 5.2 5.5 5.7 6.0 6.0 5.8 5.6 5.5 5.5 5.7 5.8 5.9 6.0 5.9 5.9 5.8 5.7 5.7 5.5 5.4 5.4 5.5 5.3
6.1 6.1 6.1 6.3 6.1 6.0 5.8 5.3 4.9 5.1 5.3 5.2 5.0 5.0 4.9 5.1 5.3 5.5 5.4 5.4 5.5 5.6 5.9 5.9 5.9 5.7 5.5 5.5 5.7 5.6 5.7 5.7 5.8 5.8 5.7 5.7 5.7 5.6 5.5 5.3 5.2 5.3 5.3 5.2
6.1 6.1 5.6 5.8 5.6 5.2 5.3 5.2 5.1 5.4 5.5 5.4 5.2 5.0 5.2 5.5 5.6 5.6 5.7 5.9 5.9 5.7 5.7 5.6 5.5 5.6 5.7 5.7 5.6 5.5 5.5 5.5 5.5 5.5 5.5 5.5 5.5 5.4 5.3 5.2 5.3 5.2 5.1 5.2
Wind_Speed
3 4 4 5 4 3 2 3 5 5 3 3 6 13 23 6 9 10 9 9 9 12 7 8 9 9 8 7 8 7 7 5 3 2 3 2 2 2 3 8 12 13 13 14
4 4 3 3 2 2 3 3 6 6 3 2 6 14 23 7 5 8 11 10 11 6 7 8 8 8 9 8 8 7 6 5 4 2 2 2 3 3 4 5 9 11 12 13
5 2 4 3 2 3 4 5 4 6 5 5 4 7 6 3 3 2 5 5 7 11 11 10 11 11 8 8 8 7 7 6 4 4 3 3 4 3 2 1 2 4 9 11
5 1 4 3 4 6 4 4 2 3 4 3 4 5 8 3 6 4 4 5 7 9 7 8 11 8 9 7 7 7 7 6 4 4 3 4 3 3 2 2 2 3 8 10
5 6 5 5 5 7 6 2 2 2 3 3 2 1 8 3 5 7 7 7 7 7 8 10 12 12 7 8 7 7 7 6 4 4 4 3 2 2 2 3 4 3 4 8
6 1 4 6 2 2 1 2 4 4 3 1 4 5 5 4 6 3 1 5 7 7 7 5 6 7 6 6 6 6 7 5 4 4 3 4 5 5 4 2 3 2 1 3
2 4 1 2 2 2 2 4 4 4 2 6 1 3 9 5 7 5 4 3 7 5 6 6 8 7 7 7 7 6 7 6 5 5 4 4 4 4 5 4 3 3 1 1
4 6 7 5 5 5 5 6 4 5 4 7 3 7 5 3 5 6 6 5 6 5 4 4 4 6 7 7 7 7 7 6 6 5 5 4 5 3 3 3 2 2 2 2
5 6 2 2 2 4 3 4 3 1 0 2 4 6 3 3 6 9 9 9 9 12 11 11 10 7 5 5 5 5 6 5 5 5 5 4 4 5 4 4 3 2 2 2
3 5 4 3 1 2 4 3 3 1 4 5 5 5 5 4 6 6 10 9 12 12 14 12 13 12 9 6 4 5 4 5 5 5 5 4 5 5 5 4 4 4 3 2
4 4 2 3 7 9 1 3 4 2 4 4 3 5 6 5 6 6 9 11 11 12 12 9 9 9 9 10 9 7 5 4 4 4 4 4 4 3 3 2 3 3 2 1
4 4 5 11 3 2 3 7 7 4 5 4 2 7 3 6 5 6 9 10 10 12 10 8 9 8 8 8 8 7 7 8 6 5 5 5 4 1 0 2 3 3 1 1
4 3 4 9 2 2 4 5 5 4 3 8 6 5 5 6 6 7 9 8 9 9 8 8 9 9 9 8 7 6 7 7 5 5 4 3 2 3 3 3 3 2 3 3
3 4 7 14 9 2 4 4 4 7 5 8 13 13 8 8 5 8 9 9 9 8 8 9 9 8 8 7 7 7 7 5 6 6 5 4 4 4 1 1 4 4 4 4
4 6 4 8 10 10 18 18 16 17 21 14 24 18 10 6 7 7 8 8 8 8 9 8 8 7 6 6 6 6 6 5 5 5 4 4 3 5 4 2 4 3 3 4
3 4 6 16 16 17 21 21 20 21 24 23 23 21 9 9 9 10 8 8 8 7 7 7 7 6 5 5 5 6 6 6 4 4 4 4 4 4 3 4 4 4 4 5
7 5 4 16 6 9 15 18 23 20 2 6 12 0 9 8 9 6 5 6 6 6 6 7 7 6 4 5 5 5 6 6 6 5 5 5 4 4 4 4 4 4 5 5
14 8 4 9 4 10 2 5 3 3 6 7 10 8 4 9 8 7 7 5 5 5 6 5 4 4 4 4 5 5 5 5 5 6 5 5 5 5 4 4 4 4 4 5
21 16 7 5 9 8 4 3 3 3 3 0 7 6 4 9 8 6 6 6 5 4 2 2 3 3 4 4 5 5 5 4 4 5 5 5 5 5 5 6 5 5 5 5
11 17 10 7 8 10 2 3 4 1 3 4 5 6 4 2 4 3 4 4 4 4 3 3 4 3 4 5 4 4 5 4 4 5 5 5 5 5 6 6 7 5 5 7
3 3 15 14 11 2 2 4 5 5 2 9 7 6 4 2 2 3 3 3 2 3 4 4 5 4 5 5 3 4 4 5 5 7 6 6 5 6 6 6 4 5 6 7
9 6 7 7 12 15 4 3 0 2 6 6 6 4 4 3 2 3 4 6 6 6 5 5 4 5 5 6 4 5 6 6 8 7 8 7 6 7 7 7 7 6 6 6
3 3 2 2 2 3 7 11 6 6 4 4 3 3 1 2 2 2 3 3 4 5 5 5 4 4 5 6 5 6 8 8 7 7 8 8 8 8 9 9 8 6 5 4
3 5 1 3 2 5 8 9 8 8 6 4 5 4 3 2 2 3 3 4 4 4 6 3 3 6 6 5 8 7 8 7 8 9 7 7 6 9 6 5 6 6 4 4
3 6 3 3 5 7 8 6 4 6 5 5 3 2 3 4 2 2 3 4 5 6 5 3 5 7 7 6 8 7 10 7 8 7 6 7 8 7 7 7 6 7 7 8
5 4 3 1 3 3 4 4 4 6 5 4 3 3 3 3 5 4 4 4 4 7 5 7 8 9 10 9 9 9 7 8 6 8 8 6 7 6 7 6 7 16 19 22
Wind_Direction
3 48 231 230 194 165 165 221 257 247 256 250 231 273 281 245 227 228 225 217 209 207 194 174 167 161 152 152 152 162 157 165 152 135 129 133 106 85 55 59 62 54 53 49
18 237 209 131 154 177 194 262 257 285 185 5 291 283 285 267 225 211 212 219 209 173 166 169 167 168 173 161 165 164 167 164 167 157 156 135 141 102 107 85 68 63 61 57
182 239 145 181 203 224 227 207 231 233 331 265 303 280 304 283 271 208 214 211 188 192 184 176 178 183 164 169 173 167 168 165 158 148 118 89 88 87 98 66 68 66 80 78
230 177 180 203 241 160 278 189 217 279 21 253 24 283 301 303 277 279 243 212 211 179 175 182 180 175 182 181 164 162 157 154 156 153 147 161 169 163 194 142 123 84 84 79
256 177 196 217 221 163 231 157 254 205 197 6 259 132 271 292 270 249 239 213 236 203 180 180 185 188 172 153 168 160 147 147 142 150 162 159 145 117 114 106 122 98 64 72
248 297 190 210 184 191 75 335 53 55 89 333 233 163 275 220 224 200 176 211 204 201 186 163 132 128 140 145 147 147 144 143 138 127 115 148 149 147 133 131 130 136 86 45
298 229 197 163 167 47 101 61 320 333 350 234 160 183 242 309 309 195 174 78 182 181 143 159 154 153 148 159 152 147 146 149 141 117 96 114 132 144 155 161 164 159 113 22
200 310 182 175 204 188 187 160 170 271 248 272 322 246 257 334 21 59 50 65 121 130 98 132 154 149 152 152 152 151 158 149 147 134 121 115 120 127 138 154 153 154 136 154
180 264 136 182 156 143 174 184 183 211 208 321 232 287 288 97 54 43 24 30 44 43 45 47 44 51 92 127 151 154 149 149 157 146 141 134 134 142 151 147 140 139 139 169
225 288 203 152 131 41 165 161 74 5 270 250 266 272 234 171 91 45 38 38 78 71 56 46 45 41 37 44 95 110 141 154 159 157 159 162 156 151 148 151 158 168 189 200
174 170 261 123 201 189 119 226 221 195 169 233 287 256 319 117 100 91 81 75 72 76 71 55 47 39 38 41 40 41 44 108 138 159 155 148 148 147 154 167 168 184 185 286
214 180 237 223 227 222 185 208 178 191 228 229 234 259 86 83 74 104 109 101 88 73 70 66 60 50 45 39 34 34 35 52 39 47 72 72 74 67 56 294 223 165 165 264
193 230 317 317 10 353 212 200 184 117 77 227 245 257 162 130 110 100 102 95 85 76 66 56 49 41 40 35 28 28 32 24 23 50 34 17 345 320 273 252 211 92 335 266
153 216 205 249 249 126 203 216 225 213 218 260 231 261 205 197 160 99 89 80 74 66 51 48 46 32 27 27 24 25 25 20 10 8 6 347 330 318 72 8 262 242 232 249
195 252 224 263 280 280 275 264 256 238 242 240 266 254 294 131 107 97 96 85 77 71 60 55 46 23 19 12 14 18 10 13 3 356 342 336 322 321 237 256 295 304 273 273
169 253 206 259 258 255 262 261 253 249 250 245 253 263 117 103 98 83 73 78 74 60 65 50 50 28 8 358 9 356 351 349 349 337 328 312 300 279 307 281 248 251 267 268
185 200 204 266 228 264 261 257 248 247 263 251 246 295 136 113 103 93 86 71 65 59 42 34 19 12 345 359 360 344 340 334 340 337 335 329 340 332 322 296 289 280 278 281
243 222 228 263 258 247 268 31 329 106 95 109 101 101 79 125 101 98 73 57 53 49 41 25 6 347 328 337 340 335 340 344 342 343 337 337 338 329 322 305 292 285 279 271
221 228 239 238 233 272 225 197 155 188 172 56 135 127 94 129 108 73 82 74 48 34 9 316 291 293 317 333 323 322 317 324 333 329 326 324 317 315 305 297 290 282 279 270
206 222 224 218 237 251 63 97 13 313 222 138 113 84 88 195 216 108 69 52 31 11 350 330 318 318 328 317 316 328 309 304 307 306 296 300 303 295 291 287 284 270 258 271
154 198 226 239 250 206 44 353 303 191 142 112 107 103 80 103 51 107 90 48 29 341 320 344 328 288 286 295 294 317 313 311 313 314 309 303 290 292 280 278 275 274 269 273
214 216 220 234 242 247 320 136 7 68 42 103 98 86 105 120 77 37 31 3 353 346 327 310 296 290 308 322 343 327 324 317 315 307 311 304 295 296 301 295 287 276 267 268
291 359 310 8 62 72 23 86 71 74 89 45 66 83 45 93 57 13 348 321 308 302 303 303 278 306 316 312 316 324 314 311 309 306 299 294 298 300 300 294 290 288 275 270
91 14 91 166 101 87 80 60 63 63 79 63 42 39 12 6 304 344 328 320 312 295 301 268 325 309 294 300 312 293 296 310 303 296 290 289 286 294 289 300 291 287 274 266
349 343 53 65 93 89 61 67 83 83 69 60 29 12 343 313 337 271 317 312 308 303 289 297 305 299 306 305 300 293 303 299 293 292 292 291 290 286 286 278 276 277 270 265
351 360 333 79 25 55 94 89 56 64 43 16 350 323 306 332 336 322 309 281 279 282 315 319 314 308 305 302 295 295 291 295 291 301 297 293 299 292 288 291 289 286 290 292